Surface/Precipitation History
12/09/2018 01:52  to  12/10/2018 01:52
Change End Date:
To complete the export process:
1) Select all of the data below
2) Copy the data to the clipboard
3) Open a word processor such as Notepad
4) Paste the data into the word processor
5) Save the file

Date/Time (MST), SfStatus, SfTemp, PvtTemp, SubTemp, FreezeTemp, ChemFactor, ChemPercent, WaterDepth, WaterDepthIceThickness, IcePercent, Conductivity, Salinity, FrictionIndex, PrecipType, PrecipIntensity, Accumulation, PrecipRate
12/10/2018 01:51, Ice Warning, 17.1, , 34, 32, 95, 0, , , 99, 1, 111, , None, None, ,  
12/10/2018 01:45, Ice Warning, 17.1, , 34, 32, 95, 0, , , 99, 1, 112, , None, None, ,  
12/10/2018 01:41, Error, 17.1, , 34, , , , , , , 1, 113, , None, None, ,  
12/10/2018 01:31, Error, 17.1, , 34, , , , , , , 1, 110, , None, None, ,  
12/10/2018 01:21, Error, 17.1, , 34, , , , , , , 1, 105, , None, None, ,  
12/10/2018 01:11, Ice Warning, 17.2, , 34, 32, 95, 0, , , 99, 1, 107, , None, None, ,  
12/10/2018 01:01, Error, 17.2, , 34, , , , , , , 1, 110, , None, None, ,  
12/10/2018 00:51, Error, 17.4, , 34, , , , , , , 1, 106, , None, None, ,  
12/10/2018 00:48, Error, 17.2, , 34, , , , , , , 1, 110, , None, None, ,  
12/10/2018 00:41, Error, 17.4, , 34, , , , , , , 1, 112, , None, None, ,  
12/10/2018 00:31, Error, 17.4, , 34, , , , , , , 1, 110, , None, None, ,  
12/10/2018 00:21, Error, 17.6, , 34, , , , , , , 1, 110, , None, None, ,  
12/10/2018 00:11, Ice Warning, 17.6, , 34, 32, 95, 0, , , 99, 1, 114, , None, None, ,  
12/10/2018 00:00, Error, 17.8, , 34, , , , , , , 1, 114, , None, None, ,  
12/09/2018 23:50, Ice Warning, 17.8, , 34, 32, 95, 0, , , 99, 1, 110, , None, None, ,  
12/09/2018 23:45, Error, 18, , 34, , , , , , , 1, 113, , None, None, ,  
12/09/2018 23:40, Error, 17.8, , 34, , , , , , , 1, 113, , None, None, ,  
12/09/2018 23:30, Ice Warning, 17.8, , 34, 32, 95, 0, , , 99, 1, 111, , None, None, ,  
12/09/2018 23:20, Ice Warning, 17.8, , 34, 32, 95, 0, , , 99, 1, 110, , None, None, ,  
12/09/2018 23:15, Ice Warning, 17.8, , 34, 32, 95, 0, , , 99, 1, 114, , None, None, ,  
12/09/2018 23:10, Ice Warning, 17.8, , 34, 32, 95, 0, , , 99, 1, 114, , None, None, ,  
12/09/2018 23:00, Ice Warning, 18, , 34, 32, 95, 0, , , 99, 1, 117, , None, None, ,  
12/09/2018 22:50, Ice Warning, 18.1, , 34, 32, 95, 0, , , 99, 1, 114, , None, None, ,  
12/09/2018 22:45, Error, 18.1, , 34, , , , , , , 1, 118, , None, None, ,  
12/09/2018 22:40, Ice Warning, 18.3, , 34, 32, 95, 0, , , 99, 1, 118, , None, None, ,  
12/09/2018 22:30, Ice Warning, 18.5, , 34, 32, 95, 0, , , 99, 1, 117, , None, None, ,  
12/09/2018 22:20, Ice Warning, 18.7, , 34, 32, 95, 0, , , 99, 1, 120, , None, None, ,  
12/09/2018 22:15, Ice Warning, 18.7, , 34, 32, 95, 0, , , 99, 1, 118, , None, None, ,  
12/09/2018 22:10, Ice Warning, 18.7, , 34, 32, 95, 0, , , 99, 1, 117, , None, None, ,  
12/09/2018 22:00, Ice Warning, 18.9, , 34, 32, 95, 0, , , 99, 1, 122, , None, None, ,  
12/09/2018 21:50, Ice Warning, 19, , 34, 32, 95, 0, , , 99, 1, 126, , None, None, ,  
12/09/2018 21:45, Ice Warning, 19.2, , 34, 32, 95, 0, , , 99, 1, 123, , None, None, ,  
12/09/2018 21:40, Ice Warning, 19.2, , 34, 32, 95, 0, , , 99, 1, 127, , None, None, ,  
12/09/2018 21:30, Ice Warning, 19.6, , 34, 32, 95, 0, , , 99, 1, 127, , None, None, ,  
12/09/2018 21:20, Ice Warning, 19.8, , 34, 32, 95, 1, , , 99, 1, 134, , None, None, ,  
12/09/2018 21:15, Ice Warning, 19.8, , 34, 32, 95, 1, , , 99, 1, 133, , None, None, ,  
12/09/2018 21:10, Ice Warning, 19.8, , 34, 32, 95, 1, , , 99, 1, 134, , None, None, ,  
12/09/2018 21:00, Ice Warning, 20.1, , 34, 32, 95, 1, , , 99, 1, 138, , None, None, ,  
12/09/2018 20:49, Ice Warning, 20.5, , 34, 32, 95, 1, , , 99, 1, 139, , None, None, ,  
12/09/2018 20:46, Ice Warning, 20.7, , 34, 32, 95, 1, , , 99, 1, 141, , None, None, ,  
12/09/2018 20:39, Ice Warning, 20.7, , 34, 32, 95, 1, , , 99, 1, 139, , None, None, ,  
12/09/2018 20:29, Ice Warning, 20.3, , 34, 32, 95, 1, , , 99, 1, 135, , None, None, ,  
12/09/2018 20:19, Ice Warning, 19.8, , 34, 32, 95, 1, , , 99, 1, 134, , None, None, ,  
12/09/2018 20:09, Ice Warning, 19.8, , 34, 32, 95, 1, , , 99, 1, 140, , None, None, ,  
12/09/2018 19:59, Ice Warning, 19.9, , 34, 32, 95, 1, , , 99, 1, 130, , None, None, ,  
12/09/2018 19:49, Ice Warning, 19.9, , 34, 32, 95, 0, , , 99, 1, 129, , None, None, ,  
12/09/2018 19:48, Ice Warning, 19.9, , 34, 32, 95, 0, , , 99, 1, 129, , None, None, ,  
12/09/2018 19:39, Ice Warning, 20.3, , 34, 32, 95, 1, , , 99, 1, 131, , None, None, ,  
12/09/2018 19:29, Ice Warning, 20.3, , 34, 32, 95, 1, , , 99, 1, 133, , None, None, ,  
12/09/2018 19:19, Ice Warning, 20.5, , 34, 32, 95, 1, , , 99, 1, 145, , None, None, ,  
12/09/2018 19:09, Ice Warning, 20.5, , 34, 32, 95, 1, , , 99, 1, 136, , None, None, ,  
12/09/2018 18:59, Ice Warning, 20.7, , 34, 32, 95, 1, , , 99, 1, 136, , None, None, ,  
12/09/2018 18:49, Ice Warning, 20.7, , 34, 32, 95, 1, , , 99, 1, 138, , None, None, ,  
12/09/2018 18:39, Ice Warning, 20.7, , 34, 32, 95, 1, , , 99, 1, 142, , None, None, ,  
12/09/2018 18:29, Ice Warning, 20.8, , 34, 32, 95, 1, , , 99, 1, 148, , None, None, ,  
12/09/2018 18:18, Ice Warning, 21, , 34, 32, 95, 1, , , 99, 1, 141, , None, None, ,  
12/09/2018 18:08, Ice Warning, 21.4, , 34, 32, 95, 1, , , 99, 1, 140, , None, None, ,  
12/09/2018 17:58, Ice Warning, 21.6, , 34, 32, 95, 1, , , 99, 1, 141, , None, None, ,  
12/09/2018 17:48, Ice Warning, 21.7, , 34, 32, 95, 1, , , 99, 1, 146, , None, None, ,  
12/09/2018 17:45, Error, 21.7, , 34, , , , , , , 1, 147, , None, None, ,  
12/09/2018 17:38, Ice Warning, 21.7, , 34, 32, 95, 1, , , 99, 1, 140, , None, None, ,  
12/09/2018 17:28, Ice Warning, 21.9, , 34, 32, 95, 1, , , 99, 1, 145, , None, None, ,  
12/09/2018 17:18, Ice Warning, 22.1, , 34, 32, 95, 1, , , 99, 1, 147, , None, None, ,  
12/09/2018 17:08, Ice Warning, 22.3, , 34, 32, 95, 1, , , 98, 1, 154, , None, None, ,  
12/09/2018 16:58, Ice Warning, 22.6, , 34, 32, 95, 1, , , 98, 1, 156, , None, None, ,  
12/09/2018 16:48, Ice Warning, 22.8, , 34, 32, 95, 1, , , 98, 1, 158, , None, None, ,  
12/09/2018 16:47, Ice Warning, 22.8, , 34, 32, 95, 1, , , 98, 1, 163, , None, None, ,  
12/09/2018 16:38, Ice Warning, 23, , 34, 32, 95, 1, , , 98, 1, 157, , None, None, ,  
12/09/2018 16:28, Ice Warning, 23.5, , 34, 32, 95, 1, , , 98, 1, 165, , None, None, ,  
12/09/2018 16:18, Ice Warning, 23.9, , 34, 32, 95, 1, , , 98, 1, 168, , None, None, ,  
12/09/2018 16:15, Ice Warning, 23.9, , 34, 32, 95, 1, , , 98, 1, 172, , None, None, ,  
12/09/2018 16:08, Ice Warning, 24.1, , 34, 32, 95, 1, , , 98, 1, 176, , None, None, ,  
12/09/2018 15:58, Ice Warning, 24.3, , 34, 32, 95, 1, , , 98, 2, 182, , None, None, ,  
12/09/2018 15:48, Ice Warning, 24.6, , 34, 32, 95, 1, , , 98, 2, 185, , None, None, ,  
12/09/2018 15:37, Ice Warning, 24.8, , 34, 32, 95, 1, , , 97, 2, 193, , None, None, ,  
12/09/2018 15:27, Ice Warning, 25.2, , 34, 32, 95, 1, , , 97, 2, 203, , None, None, ,  
12/09/2018 15:17, Ice Warning, 25.3, , 34, 32, 95, 1, , , 97, 2, 214, , None, None, ,  
12/09/2018 15:17, Ice Warning, 25.3, , 34, 32, 95, 1, , , 97, 2, 214, , None, None, ,  
12/09/2018 15:07, Ice Warning, 25.7, , 34, 32, 95, 1, , , 96, 2, 229, , None, None, ,  
12/09/2018 14:57, Ice Warning, 26.2, , 34, 32, 95, 1, , , 96, 2, 243, , None, None, ,  
12/09/2018 14:47, Ice Warning, 26.4, , 34, 32, 95, 1, , , 95, 2, 268, , None, None, ,  
12/09/2018 14:45, Ice Warning, 26.6, , 34, 32, 95, 1, , , 95, 2, 270, , None, None, ,  
12/09/2018 14:37, Ice Warning, 27, , 34, 32, 95, 1, , , 94, 3, 288, , None, None, ,  
12/09/2018 14:27, Ice Warning, 27.3, , 34, 32, 95, 1, , , 93, 3, 308, , None, None, ,  
12/09/2018 14:17, Ice Warning, 27.7, , 34, 32, 95, 1, , , 92, 3, 341, , None, None, ,  
12/09/2018 14:15, Ice Warning, 27.9, , 34, 32, 95, 1, , , 92, 3, 346, , None, None, ,  
12/09/2018 14:07, Ice Warning, 28, , 34, 32, 95, 1, , , 91, 3, 355, , None, None, ,  
12/09/2018 13:57, Ice Warning, 28.4, , 34, 32, 95, 1, , , 90, 3, 353, , None, None, ,  
12/09/2018 13:47, Ice Warning, 28.6, , 34, 32, 95, 1, , , 89, 3, 380, , None, None, ,  
12/09/2018 13:45, Ice Warning, 28.6, , 34, 32, 95, 1, , , 88, 3, 386, , None, None, ,  
12/09/2018 13:37, Ice Warning, 28.8, , 34, 32, 95, 1, , , 88, 3, 367, , None, None, ,  
12/09/2018 13:27, Ice Warning, 28.8, , 34, 32, 95, 1, , , 88, 3, 373, , None, None, ,  
12/09/2018 13:17, Ice Warning, 28.4, , 34, 32, 95, 1, , , 90, 3, 364, , None, None, ,  
12/09/2018 13:16, Ice Warning, 28.4, , 34, 32, 95, 1, , , 90, 3, 376, , None, None, ,  
12/09/2018 13:07, Ice Warning, 28.4, , 34, 32, 95, 1, , , 90, 3, 353, , None, None, ,  
12/09/2018 12:57, Ice Warning, 28.4, , 34, 32, 95, 1, , , 90, 3, 353, , None, None, ,  
12/09/2018 12:47, Ice Warning, 28.4, , 34, 32, 95, 1, , , 90, 3, 359, , None, None, ,  
12/09/2018 12:45, Ice Warning, 28.2, , 34, 32, 95, 1, , , 91, 3, 349, , None, None, ,  
12/09/2018 12:36, Ice Warning, 28, , 34, 32, 95, 1, , , 91, 3, 350, , None, None, ,  
12/09/2018 12:26, Ice Warning, 27.9, , 34, 32, 95, 1, , , 93, 3, 306, , None, None, ,  
12/09/2018 12:16, Ice Warning, 27.5, , 34, 32, 95, 1, , , 94, 3, 286, , None, None, ,  
12/09/2018 12:06, Ice Warning, 27.1, , 34, 32, 95, 1, , , 95, 2, 271, , None, None, ,  
12/09/2018 11:56, Ice Warning, 26.8, , 34, 32, 95, 1, , , 95, 2, 270, , None, None, ,  
12/09/2018 11:46, Ice Warning, 26.4, , 34, 32, 95, 1, , , 95, 2, 262, , None, None, ,  
12/09/2018 11:36, Ice Warning, 26.2, , 34, 32, 95, 1, , , 96, 2, 266, , None, None, ,  
12/09/2018 11:26, Ice Warning, 25.5, , 34, 32, 95, 1, , , 97, 2, 221, , None, None, ,  
12/09/2018 11:16, Ice Warning, 25.2, , 34, 32, 95, 1, , , 97, 2, 219, , None, None, ,  
12/09/2018 11:15, Ice Warning, 25.2, , 34, 32, 95, 1, , , 97, 2, 219, , None, None, ,  
12/09/2018 11:06, Ice Warning, 24.8, , 34, 32, 95, 1, , , 97, 2, 204, , None, None, ,  
12/09/2018 10:56, Ice Warning, 24.4, , 34, 32, 95, 1, , , 97, 2, 197, , None, None, ,  
12/09/2018 10:46, Ice Warning, 24.1, , 34, 32, 95, 1, , , 98, 2, 192, , None, None, ,  
12/09/2018 10:45, Ice Warning, 24.1, , 34, 32, 95, 1, , , 98, 2, 192, , None, None, ,  
12/09/2018 10:36, Ice Warning, 23.9, , 34, 32, 95, 1, , , 98, 2, 188, , None, None, ,  
12/09/2018 10:26, Ice Warning, 23.7, , 34, 32, 95, 1, , , 98, 2, 183, , None, None, ,  
12/09/2018 10:19, Ice Warning, 23.5, , 34, 32, 95, 1, , , 98, 2, 186, , None, None, ,  
12/09/2018 10:16, Ice Warning, 23.5, , 34, 32, 95, 1, , , 98, 1, 181, , None, None, ,  
12/09/2018 10:06, Ice Warning, 23.2, , 34, 32, 95, 1, , , 98, 1, 171, , None, None, ,  
12/09/2018 09:56, Ice Warning, 22.8, , 34, 32, 95, 1, , , 98, 1, 168, , None, None, ,  
12/09/2018 09:46, Ice Warning, 22.8, , 34, 32, 95, 1, , , 98, 1, 166, , None, None, ,  
12/09/2018 09:35, Ice Warning, 22.6, , 34, 32, 95, 1, , , 98, 1, 160, , None, None, ,  
12/09/2018 09:25, Ice Warning, 22.5, , 34, 32, 95, 1, , , 98, 1, 160, , None, None, ,  
12/09/2018 09:15, Ice Warning, 22.3, , 34, 32, 95, 1, , , 98, 1, 162, , None, None, ,  
12/09/2018 09:15, Ice Warning, 22.3, , 34, 32, 95, 1, , , 98, 1, 162, , None, None, ,  
12/09/2018 09:05, Ice Warning, 21.9, , 34, 32, 95, 1, , , 98, 1, 162, , None, None, ,  
12/09/2018 08:55, Ice Warning, 21.9, , 34, 32, 95, 1, , , 99, 1, 151, , None, None, ,  
12/09/2018 08:45, Ice Warning, 21.7, , 34, 32, 95, 1, , , 99, 1, 151, , None, None, ,  
12/09/2018 08:45, Ice Warning, 21.7, , 34, 32, 95, 1, , , 99, 1, 151, , None, None, ,  
12/09/2018 08:35, Ice Warning, 21.7, , 34, 32, 95, 1, , , 99, 1, 151, , None, None, ,  
12/09/2018 08:25, Ice Warning, 21.7, , 34, 32, 95, 1, , , 99, 1, 146, , None, None, ,  
12/09/2018 08:15, Ice Warning, 21.7, , 34, 32, 95, 1, , , 99, 1, 149, , None, None, ,  
12/09/2018 08:05, Ice Warning, 21.7, , 34, 32, 95, 1, , , 99, 1, 147, , None, None, ,  
12/09/2018 07:55, Ice Warning, 21.7, , 34, 32, 95, 1, , , 99, 1, 145, , None, None, ,  
12/09/2018 07:46, Ice Warning, 21.6, , 34, 32, 95, 1, , , 99, 1, 145, , None, None, ,  
12/09/2018 07:45, Ice Warning, 21.6, , 34, 32, 95, 1, , , 99, 1, 145, , None, None, ,  
12/09/2018 07:35, Ice Warning, 21.6, , 34, 32, 95, 1, , , 99, 1, 149, , None, None, ,  
12/09/2018 07:25, Ice Warning, 21.6, , 34, 32, 95, 1, , , 99, 1, 147, , None, None, ,  
12/09/2018 07:15, Ice Warning, 21.4, , 34, 32, 95, 1, , , 99, 1, 148, , None, None, ,  
12/09/2018 07:05, Ice Warning, 21.4, , 34, 32, 95, 1, , , 99, 1, 148, , None, None, ,  
12/09/2018 06:55, Ice Warning, 21.4, , 34, 32, 95, 1, , , 99, 1, 147, , None, None, ,  
12/09/2018 06:47, Ice Warning, 21.4, , 34, 32, 95, 1, , , 99, 1, 147, , None, None, ,  
12/09/2018 06:44, Ice Warning, 21.4, , 34, 32, 95, 1, , , 99, 1, 147, , None, None, ,  
12/09/2018 06:34, Ice Warning, 21.2, , 34, 32, 95, 1, , , 99, 1, 150, , None, None, ,  
12/09/2018 06:24, Ice Warning, 21.4, , 34, 32, 95, 1, , , 99, 1, 150, , None, None, ,  
12/09/2018 06:14, Ice Warning, 21.2, , 34, 32, 95, 1, , , 99, 1, 146, , None, None, ,  
12/09/2018 06:04, Ice Warning, 21.2, , 34, 32, 95, 1, , , 99, 1, 147, , None, None, ,  
12/09/2018 05:54, Ice Warning, 21.2, , 34, 32, 95, 1, , , 99, 1, 149, , None, None, ,  
12/09/2018 05:44, Ice Warning, 21.2, , 34, 32, 95, 1, , , 99, 1, 145, , None, None, ,  
12/09/2018 05:34, Ice Warning, 21, , 34, 32, 95, 1, , , 99, 1, 146, , None, None, ,  
12/09/2018 05:24, Ice Warning, 21.2, , 34, 32, 95, 1, , , 99, 1, 148, , None, None, ,  
12/09/2018 05:17, Ice Warning, 21.2, , 34, 32, 95, 1, , , 99, 1, 144, , None, None, ,  
12/09/2018 05:14, Ice Warning, 21.2, , 34, 32, 95, 1, , , 99, 1, 145, , None, None, ,  
12/09/2018 05:04, Ice Warning, 21, , 34, 32, 95, 1, , , 99, 1, 142, , None, None, ,  
12/09/2018 04:54, Ice Warning, 21, , 34, 32, 95, 1, , , 99, 1, 146, , None, None, ,  
12/09/2018 04:44, Ice Warning, 21, , 34, 32, 95, 1, , , 99, 1, 142, , None, None, ,  
12/09/2018 04:34, Ice Warning, 21, , 34, 32, 95, 1, , , 99, 1, 142, , None, None, ,  
12/09/2018 04:24, Ice Warning, 21, , 34, 32, 95, 1, , , 99, 1, 142, , None, None, ,  
12/09/2018 04:17, Ice Warning, 21, , 34, 32, 95, 1, , , 99, 1, 145, , None, None, ,  
12/09/2018 04:14, Ice Warning, 21, , 34, 32, 95, 1, , , 99, 1, 147, , None, None, ,  
12/09/2018 04:04, Ice Warning, 21, , 34, 32, 95, 1, , , 99, 1, 143, , None, None, ,  
12/09/2018 03:53, Ice Warning, 21, , 34, 32, 95, 1, , , 99, 1, 142, , None, None, ,  
12/09/2018 03:43, Ice Warning, 21, , 34, 32, 95, 1, , , 99, 1, 144, , None, None, ,  
12/09/2018 03:33, Ice Warning, 21, , 34, 32, 95, 1, , , 99, 1, 142, , None, None, ,  
12/09/2018 03:23, Ice Warning, 21, , 34, 32, 95, 1, , , 99, 1, 142, , None, None, ,  
12/09/2018 03:13, Ice Warning, 20.8, , 34, 32, 95, 1, , , 99, 1, 141, , None, None, ,  
12/09/2018 03:03, Ice Warning, 20.8, , 34, 32, 95, 1, , , 99, 1, 146, , None, None, ,  
12/09/2018 02:53, Ice Warning, 20.8, , 34, 32, 95, 1, , , 99, 1, 145, , None, None, ,  
12/09/2018 02:46, Ice Warning, 20.8, , 34, 32, 95, 1, , , 99, 1, 144, , None, None, ,  
12/09/2018 02:43, Ice Warning, 20.8, , 34, 32, 95, 1, , , 99, 1, 140, , None, None, ,  
12/09/2018 02:33, Ice Warning, 20.8, , 34, 32, 95, 1, , , 99, 1, 140, , None, None, ,  
12/09/2018 02:23, Ice Warning, 20.7, , 34, 32, 95, 1, , , 99, 1, 144, , None, None, ,  
12/09/2018 02:13, Ice Warning, 20.8, , 34, 32, 95, 1, , , 99, 1, 142, , None, None, ,  
12/09/2018 02:03, Ice Warning, 20.7, , 34, 32, 95, 1, , , 99, 1, 139, , None, None, ,  
12/09/2018 01:53, Ice Warning, 20.7, , 34, 32, 95, 1, , , 99, 1, 142, , None, None, ,  
Change End Date:

Copyright © 1998-2015 Vaisala, Inc.
All Rights Reserved
Send comments about the data to:
SCAN Web ® is a registered trademark of Vaisala, Inc.
SCAN Web Version 6.0